BREEZE-M R/B, 40346

Orbit data source: Space-Track

BREEZE-M R/B, 40346 is space debris originally from a launch on Mon, 15 Dec 2014 UTC launched from the Tyuratam Missile And Space Complex (TTMTR). Debris objects in space refer to the collection of defunct objects orbiting the Earth. Examples of debris include non-operational satellites, rocket bodies, and fragments generated from explosions, collisions, or faulty payload assembly.

Loading next visibility...
BREEZE-M R/B details
Identifier
40346, 2014-082B
Orbit
Active
Last TLE update1 day ago
Origin
Flag of CISKhrunichev (CIS)
ManufacturerKhrunichev
MissionSpacecraft
Bus & MotorBRIZ, Unknown motor
Mass~1,600 kg wet, 1,600 kg dry
Launch date (UTC)
2014-12-15 (10 years ago)
Launch vehicleUnknown
Launch site
Tyuratam Missile And Space Complex (TTMTR)
Object type
Payload
Rocket body
Debris
Shape & HBRCyl, 4 m
Radar Cross Section14.451 m², Medium (>0.1 m² and < 1m²)

Expand to show TLE details & history

TLE from 1 day ago
0 BREEZE-M R/B
1 40346U 14082B   24360.45560772 -.00000067  00000-0  00000-0 0  9997
2 40346   7.5528  58.2720 0653539 172.0457 188.9183  1.11334956 40563
Epoch: 2024-12-25T10:56Z
Definitive object data (Epoch: 2024-12-25T10:56:04.507Z)
Latitude-0.00001°
Longitude159.7151°
Altitude35,490.383 km
Speed2.984 km/s
True Right ascension03h 52m 43s
True Declination0° 00' 00"
Sunlit
Object was in daylight at TLE epoch
Visualization TLE readout
Latitude4.03212°
Longitude-52.30705°
Altitude30,578.663 km
Speed3.382 km/s
Apparent Right ascension13h 20m 30s
Apparent Declination-2° 30' 33"
Sunlit
Object is in daylight
Visualization observer readout
Local Sidereal Time16:49:33
Azimuth241.669° WSW
Elevation26.162°
Doppler factor1
Orbital elements
Apogee altitude35,516.051 km
Perigee altitude30,376.071 km
Semi-major axis39,324.198 km
Eccentricity0.0653539
Inclination7.5528°
RAAN58.272°
Arg. of periapsis172.0457°
True anomaly187.8443°
Mean anomaly188.9183°
Eccentric anomaly188.37304°
Mean motion0.27833 °/min
BSTARUnknown
Orbital period1293.45 mins
Loading maneuver chart data...
Loading historical data...
Loading historical data...
Loading historical data...
Loading historical data...
Loading historical data...
Loading historical data...
Loading historical data...
Other satellites on launch #82 in the year 2014 (2014-12-15 UTC)

BREEZE-M R/B Visibility forecast

Observer location: undefined°, undefined

Span
Click to sort rows by Start time (UTC) header in descending order
Start Az.
Max El. time (UTC)
Max El. Az.
Max El.
End time (UTC)
End Az.
1440 mins2024-12-26 17:27:13.267Z241.652° WSW2024-12-27 13:23:13.267Z207.823° SW36.263°2024-12-27 17:27:13.267Z181.634° SSW
|